www.pogodaiklimat.ru

Погода и климат >> Архив погоды >> Южная Африка >> Коингнаас


ПОГОДА в Коингнаасе

  • Прогноз погоды в Коингнаасе
  • Монитор погоды в Коингнаасе

АРХИВ ПОГОДЫ в Коингнаасе

Время (UTC), дата Ветер
(напр.,м/с)
 
Видим.   Явления Облачность Т
(С)
Тd
(С)
f
(%)
Тe
(С)
Тes
(С)
Комфортность P
(гПа)
Po
(гПа)
Тmin
(С)
Tmax
(С)
R
(мм)
R24
(мм)
S
(см)
09 14.07 ЮВ 2 н/о н/о +10.7 +10.5 99 +9 +9 1022.4 1010.8 +4.2 +10.7
12 14.07 Ю 2 н/о н/о +15.9 +11.1 73 +16 +16 1019.7 1008.4 +4.2 +15.9
15 14.07 ЮВ 5 н/о н/о +14.4 +10.0 75 +13 +13 1020.2 1008.8 +14.3 +16.0
18 14.07 В 4 н/о н/о +11.0 +8.7 86 +9 +9 1020.3 1008.8 +10.8 +16.0
21 14.07 В 4 н/о н/о +9.5 +7.7 89 +7 +7 1021.1 1009.5 +8.6 +16.0
00 15.07 СВ 4 н/о н/о +7.1 +6.2 94 +3 +3 1021.4 1009.7 +6.9 +16.0
03 15.07 СВ 5 н/о н/о +4.7 +4.2 97 -0 -0 1020.8 1009.0 +4.5 +16.0
06 15.07 В 6 н/о н/о +3.5 +3.2 98 -2 -2 1020.9 1009.1 +3.4 0.2
09 15.07 В 3 н/о н/о +11.6 +8.8 83 +10 +10 1021.3 1009.8 +3.1 +11.6
12 15.07 ЮВ 5 н/о н/о +17.7 +10.1 61 +17 +17 1018.7 1007.5 +3.1 +17.7
15 15.07 ЮВ 5 н/о н/о +15.3 +9.2 67 +14 +14 1017.8 1006.5 +14.6 +18.5
18 15.07 ЮВ 3 н/о н/о +10.3 +8.9 91 +8 +8 1018.5 1007.0 +10.3 +18.5
21 15.07 СВ 4 н/о н/о +8.8 +7.4 91 +6 +6 1018.7 1007.1 +8.8 +18.5
00 16.07 СЗ 4 н/о н/о +8.4 +8.1 98 +5 +5 1019.4 1007.8 +7.9 +18.5
03 16.07 З 4 н/о н/о +9.9 +9.7 99 +7 +7 1019.5 1007.9 +7.9 +18.5
06 16.07 СЗ 2 н/о н/о +10.6 +10.3 98 +9 +9 1020.4 1008.9 +7.9
09 16.07 З 2 н/о н/о +11.4 +9.8 90 +10 +10 1022.0 1010.5 +7.9 +11.4
12 16.07 ЮЗ 2 н/о н/о +14.3 +9.9 75 +14 +14 1020.4 1009.0 +7.9 +14.3
15 16.07 ЮЗ 2 н/о н/о +14.0 +9.6 75 +14 +14 1019.5 1008.1 +13.9 +15.2
18 16.07 С 3 н/о н/о +10.3 +8.4 88 +8 +8 1020.7 1009.1 +10.1 +15.2
21 16.07 СЗ 3 н/о н/о +8.7 +7.6 93 +6 +6 1021.9 1010.3 +8.3 +15.2
00 17.07 СВ 4 н/о н/о +7.9 +7.3 96 +5 +5 1021.4 1009.7 +7.1 +15.2
03 17.07 СВ 1 н/о н/о +8.3 +8.0 98 +7 +7 1021.9 1010.2 +7.1 +15.2
06 17.07 СВ 3 н/о н/о +8.4 +8.1 98 +6 +6 1023.1 1011.4 +7.1 0.2
09 17.07 СВ 1 н/о н/о +11.0 +9.2 89 +11 +11 1025.0 1013.4 +7.1 +11.0
12 17.07 З 4 н/о н/о +14.4 +9.0 70 +13 +13 1022.6 1011.2 +7.1 +14.5
15 17.07 ЮЗ 3 н/о н/о +13.7 +9.7 77 +13 +13 1022.6 1011.2 +13.5 +16.2
18 17.07 штиль 0 н/о н/о +10.8 +8.5 86 +10 +10 1023.3 1011.7 +10.8 +16.2
21 17.07 СВ 3 н/о н/о +7.6 +6.5 93 +5 +5 1024.2 1012.5 +7.4 +16.2
00 18.07 СВ 3 н/о н/о +6.7 +5.9 95 +3 +3 1023.7 1012.0 +6.7 +16.2
03 18.07 СВ 4 н/о н/о +7.1 +6.3 95 +3 +3 1022.4 1010.7 +6.6 +16.2
06 18.07 СВ 4 н/о н/о +6.5 +5.7 95 +3 +3 1022.8 1011.1 +6.4
09 18.07 СВ 2 н/о н/о +16.9 +9.4 61 +17 +17 1023.6 1012.3 +6.4 +16.9
12 18.07 ЮЗ 3 н/о н/о +17.3 +9.0 58 +17 +17 1022.1 1010.8 +6.4 +19.6
15 18.07 ЮЗ 3 н/о н/о +17.1 +13.2 78 +17 +17 1021.6 1010.3 +16.6 +19.6
18 18.07 СВ 3 н/о н/о +14.0 +11.8 87 +13 +13 1022.5 1011.1 +13.8 +19.6
21 18.07 ЮЗ 1 н/о н/о +14.0 +12.5 91 +14 +14 1023.3 1011.9 +13.0 +19.6
00 19.07 СЗ 2 н/о н/о +14.7 +14.2 97 +14 +14 1023.4 1012.0 +13.0 +19.6 0.2
03 19.07 СЗ 2 н/о н/о +14.8 +14.3 97 +14 +14 1023.2 1011.8 +13.0 +19.6
06 19.07 СЗ 2 н/о н/о +14.7 +14.0 96 +15 +15 1023.8 1012.4 +13.0 0.4
09 19.07 З 3 н/о н/о +15.0 +14.6 97 +14 +14 1025.8 1014.4 +13.0 +15.0
12 19.07 ЮЗ 4 н/о н/о +15.5 +14.0 91 +15 +15 1024.6 1013.2 +13.0 +16.0 0.4
15 19.07 Ю 5 н/о н/о +16.1 +10.9 71 +15 +15 1024.9 1013.5 +15.6 +16.6
18 19.07 ЮВ 5 н/о н/о +14.3 +10.7 79 +13 +13 1026.2 1014.7 +14.3 +16.6 0.4
21 19.07 В 5 н/о н/о +12.9 +9.0 77 +11 +11 1026.9 1015.4 +12.8 +16.6
00 20.07 ЮВ 4 н/о н/о +9.9 +8.0 88 +7 +7 1027.3 1015.6 +9.9 +16.6 0.4
03 20.07 В 5 н/о н/о +9.1 +6.8 86 +6 +6 1026.4 1014.7 +9.1 +16.6
06 20.07 В 6 н/о н/о +7.7 +4.8 82 +4 +4 1027.1 1015.4 +7.6 0.4
09 20.07 В 11 н/о н/о +13.8 +2.4 46 +11 +11 1028.0 1016.5 +7.6 +13.8
12 20.07 ЮВ 7 н/о н/о +16.2 +5.2 48 +15 +15 1025.0 1013.6 +7.6 +16.3
15 20.07 ЮВ 9 н/о н/о +14.9 +6.2 56 +13 +13 1022.9 1011.5 +14.8 +16.4
18 20.07 ЮВ 6 н/о н/о +10.2 +5.2 71 +7 +7 1022.4 1010.8 +10.2 +16.4
21 20.07 В 5 н/о н/о +10.4 +2.2 57 +8 +8 1022.0 1010.4 +10.2 +16.4
00 21.07 СВ 7 н/о н/о +14.7 -1.3 33 +13 +13 1020.4 1009.0 +9.6 +16.4
03 21.07 СВ 11 н/о н/о +15.9 -4.5 24 +14 +14 1018.3 1007.0 +9.6 +16.4

 

Местоположение метеостанции Коингнаас (Южная Африка): широта -30.20 долгота 17.28 высота над уровнем моря 99 м.

В архиве по умолчанию представлена погода в Коингнаасе за последнюю неделю. Архивные данные за месяц целиком и за предыдущие месяцы, начиная с января 2011 года, Вы можете получить, выбрав интересующий диапазон дат из раскрывающегося списка и нажав кнопку "Ввод!".


*Определитесь, кто Вы:
робот инопланетянин человек

Внимание! Время в таблицах - всемирное. Для получения местного времени необходимо прибавить поправку, которая равна 2 ч.

Смотрите также архив погоды в соседних городах и на ближайших метеорологических станциях:

Погода в Спрингбоке (Южная Африка) (85 км)
Погода в Порт Ноллоз (Южная Африка) (115 км)
Погода в Портервилле (Южная Африка) (165 км)
Погода в Виулсдрифе (Южная Африка) (170 км)
Погода в Александер-Бее (Южная Африка) (196 км)
Погода в Фридендале (Южная Африка) (200 км)
Погода в Ниеувоудтвилле (Южная Африка) (214 км)
Погода в Ламбертс-Бей (Южная Африка) (227 км)
Погода в Пофаддере (Южная Африка) (235 км)
Погода в Клануильяме (Южная Африка) (268 км)

Пояснения к столбцам:

Ветер - указаны скорость ветра в м/с - средняя за 10 мин, порывы в срок и между сроками (в фигурных скобках) и направление, откуда дует ветер: С - северный, СВ - северо-восточный, В - восточный, ЮВ - юго-восточный, Ю - южный, ЮЗ - юго-западный, З - западный, СЗ - северо-западный.
Видимость - горизонтальная дальность видимости в метрах или километрах. При видимости от 1 до 10 км при отсутствии осадков обычно наблюдается дымка, при ухудшении видимости до 1 км и менее - туман. В сухую погоду видимость может ухудшаться дымом, пылью или мглою.
Явления - указаны атмосферные явления, наблюдавшиеся в срок или в последний час перед сроком; фигурными скобками обозначены явления, наблюдавшиеся между сроками (за 1-3 часа до срока); квадратными скобками обозначены град или гололедные отложения с указанием их диаметра в мм.
Облачность - указаны через наклонную черту общая и нижняя облачность в баллах и высота нижней границы облаков в метрах; квадратными скобками обозначены формы облаков: Ci - перистые, Cs - перисто-слоистые, Cc - перисто-кучевые, Ac - высококучевые, As - высокослоистые, Sc - слоисто-кучевые, Ns - слоисто-дождевые, Cu - кучевые, Cb - кучево-дождевые. Подробнее классификацию облаков см. в Атласе облаков (PDF).
T - Температура воздуха - температура, измеренная на высоте 2 м над землей.
Td - Температура точки росы - температура, при понижении до которой содержащийся в воздухе водяной пар достигнет насыщения.
f - Относительная влажность воздуха - влажноcть воздуха, измеренная на высоте 2 м над землей.
Te - Эффективная температура - температура, которую ощущает одетый по сезону человек в тени. Характеристика душности погоды. При расчете учитывается влияние влажности воздуха и скорости ветра на теплоощущения человека.
Tes - Эффективная температура на солнце - температура, которую ощущает человек, с поправкой на солнечный нагрев. Характеристика знойности погоды. Зависит от высоты солнца над горизонтом, облачности и скорости ветра. Ночью, в пасмурную погоду, а также при ветре 12 м/с и более поправка равна нулю.
P - Атмосферное давление - приведенное к уровню моря атмосферное давление.
Po - Атмосферное давление - измеренное на уровне метеостанции атмосферное давление.
Tmin - Минимальная температура - минимум температуры воздуха на высоте 2 м над землей.
Tmax - Максимальная температура - максимум температуры воздуха на высоте 2 м над землей.
R - Количество осадков - Количество выпавших осадков за период времени, мм. При наведении курсора мыши на число - период времени, за который выпало указанное количество осадков.
R24 - Количество осадков - Количество выпавших осадков за 24 часа, мм.
S - Снежный покров - Высота снежного покрова, см. При наведении курсора мыши на число - состояние снежного покрова и степень покрытия местности в баллах.